Wind_Speed
65 65 65 65 66 67 68 68 68 69 70 71 72 73 74 76 76 77 77 78 78 78 78 78 79 80 81 81 82 82 84 85 86 86 88 89 90 91 90 88 85 83 81 79 77 74 73 72 70 69 67 65 63 61 60 58 58 58 58 58 57 55 52 49 44 41 39 39 41 42 43 42 42 40 37 34 32 31 31 30 30 29 26 23 21
68 67 66 66 68 69 70 70 70 71 72 73 74 75 77 78 78 79 79 80 80 80 80 80 80 81 82 83 84 84 85 87 88 89 90 90 92 93 90 87 85 83 80 78 76 74 73 72 71 69 67 65 63 61 60 59 58 59 58 58 56 54 51 46 41 38 38 39 41 42 44 43 41 39 35 32 30 30 30 30 29 28 25 23 20
69 68 68 69 70 70 71 72 73 73 74 75 76 77 78 79 80 80 81 81 81 82 82 82 82 83 84 85 86 86 87 88 90 90 90 92 94 93 90 87 85 82 80 77 75 74 73 72 70 69 67 64 62 61 60 59 59 59 58 57 55 52 48 42 38 37 38 39 41 43 44 43 40 37 33 30 29 29 29 29 29 27 24 22 20
70 70 71 72 72 72 73 74 75 75 76 77 78 79 79 81 81 82 82 83 83 83 84 84 84 85 86 87 88 88 89 90 91 92 93 95 95 92 89 87 84 81 78 76 74 73 73 71 69 67 65 63 62 60 60 59 59 58 58 56 53 50 44 38 37 38 39 41 43 44 44 41 39 35 30 28 28 29 29 29 28 26 24 22 19
73 73 74 74 75 75 76 76 77 77 78 79 80 80 81 82 83 83 84 84 84 85 85 86 86 87 88 89 90 90 91 92 94 94 95 95 94 91 88 86 83 80 77 75 74 72 71 70 68 66 64 62 61 60 59 59 58 57 56 54 50 46 40 36 38 40 42 43 44 43 42 39 37 32 28 27 28 29 28 28 27 25 23 21 19
76 76 76 76 77 78 78 78 79 79 80 81 81 82 82 83 84 84 84 85 86 87 87 88 88 89 90 91 91 92 93 95 95 95 94 93 92 90 87 85 82 79 77 75 73 71 69 67 66 64 62 61 60 59 58 58 56 55 53 50 47 42 37 38 41 43 43 44 43 41 39 37 34 29 27 27 28 28 28 28 26 24 23 21 19
78 78 78 79 79 80 80 80 80 81 82 82 83 83 84 84 85 85 86 87 88 89 89 89 90 91 91 92 93 94 95 95 94 92 92 92 90 88 86 83 80 78 75 71 69 67 65 64 63 62 61 60 59 58 57 56 54 53 51 47 43 39 39 42 43 43 43 43 41 38 36 34 30 26 26 28 28 28 28 27 25 24 22 21 19
80 80 80 81 81 81 81 81 82 82 83 84 84 85 85 85 85 86 87 89 90 90 90 90 91 92 93 94 94 94 95 94 92 90 91 90 88 85 83 80 75 70 66 64 62 61 60 60 59 59 59 59 58 57 56 54 52 50 48 44 40 40 42 43 43 43 42 41 38 35 33 30 26 25 27 28 28 28 27 26 25 23 22 20 18
82 82 82 82 83 83 83 83 83 84 85 85 86 86 86 87 87 88 89 90 90 91 91 91 92 93 94 94 94 94 93 91 90 90 90 88 84 83 80 74 67 62 61 61 58 56 56 56 57 59 59 59 58 56 54 52 49 47 44 41 40 41 43 43 42 41 40 37 34 32 29 26 24 26 27 28 28 27 26 25 24 23 21 19 18
84 84 84 84 84 84 84 84 84 85 86 87 87 87 88 89 89 90 91 91 91 91 92 92 93 93 93 92 92 90 89 88 88 87 86 84 81 79 75 68 63 62 62 61 57 55 57 59 61 61 60 58 56 54 51 49 46 42 38 37 39 42 43 41 40 39 36 33 32 29 26 24 25 26 27 28 28 27 26 25 24 22 20 19 18
85 85 85 85 85 85 85 85 86 87 88 88 88 89 89 89 90 91 91 91 92 92 92 93 91 90 90 89 87 85 84 83 84 82 79 76 73 70 67 62 59 58 58 57 58 59 62 63 63 61 58 55 52 50 48 45 42 39 37 39 41 43 42 40 38 36 33 31 30 26 24 25 26 27 28 28 28 26 25 25 24 22 20 18 17
86 86 86 85 85 85 86 87 88 87 87 88 89 89 89 89 90 91 92 92 92 90 90 88 87 86 84 81 78 77 80 82 81 77 72 68 64 61 58 55 52 52 53 55 57 60 61 60 58 56 54 51 48 46 45 43 41 41 41 42 42 41 40 38 36 34 31 30 28 25 24 26 27 27 28 28 27 26 25 24 23 22 20 18 17
86 86 85 84 85 85 86 86 86 86 87 87 87 87 88 89 90 91 90 87 85 83 83 83 83 80 75 74 72 74 82 85 82 75 72 67 61 56 53 51 49 50 54 54 55 57 57 55 53 51 49 47 46 44 43 43 42 43 42 41 40 39 38 36 34 32 30 29 27 26 26 27 28 28 29 28 26 25 24 24 23 21 19 18 18
85 85 85 85 85 85 84 84 85 86 86 86 87 88 89 88 85 83 79 77 79 80 79 76 75 71 73 81 81 82 86 85 81 75 71 64 58 53 49 48 49 52 53 53 54 54 52 50 48 46 44 43 43 43 43 43 42 42 41 40 39 37 36 34 32 31 29 27 27 27 27 28 29 29 29 27 25 24 23 23 23 21 19 18 18
86 86 86 86 86 85 85 86 86 86 87 87 85 82 80 76 74 72 71 76 79 77 72 68 69 75 84 91 89 87 85 81 76 70 67 61 56 51 47 48 50 50 49 51 52 51 49 46 43 41 41 41 41 42 42 42 41 41 40 39 37 35 34 31 30 30 28 27 27 27 28 29 28 28 27 26 24 23 23 23 22 21 19 18 18
89 89 90 88 88 87 85 84 82 80 78 76 74 72 72 73 74 72 73 77 74 70 71 74 80 87 90 90 88 84 78 72 68 65 63 57 52 48 47 50 49 47 47 48 49 49 46 42 40 39 39 40 40 41 40 40 40 39 38 37 36 34 31 29 29 29 27 26 26 27 28 28 28 27 26 25 24 23 22 22 21 20 19 18 19
89 90 91 89 89 87 84 83 82 78 75 74 77 80 83 85 83 80 81 81 78 77 80 84 87 87 85 82 78 71 65 62 61 61 57 52 49 47 48 50 46 45 46 46 45 45 42 38 38 39 40 40 40 40 39 39 38 38 37 36 34 31 29 27 27 26 25 25 26 27 28 28 27 26 25 24 23 23 22 22 21 20 19 19 19
90 91 91 90 90 89 87 87 85 84 85 86 89 90 91 91 89 88 86 84 82 81 82 83 80 77 74 70 64 59 56 55 56 56 52 50 49 47 49 49 47 45 44 42 42 40 37 36 38 40 42 41 41 39 38 37 37 36 35 34 31 28 26 25 24 24 24 25 26 27 27 27 26 25 24 24 24 23 22 22 21 20 19 19 20
91 92 92 91 91 90 90 90 89 90 91 92 91 88 87 86 83 82 79 78 78 78 78 73 70 68 65 61 58 55 54 54 54 52 50 50 48 47 48 48 47 44 42 42 41 38 36 38 40 41 42 43 43 41 38 35 34 33 32 31 28 25 23 23 22 22 23 24 26 26 26 26 25 24 24 25 24 23 23 22 21 20 20 20 20
91 91 91 92 92 92 92 92 91 91 90 89 84 79 78 74 69 69 71 71 72 73 72 69 66 64 61 58 55 52 53 52 47 44 45 46 45 45 47 47 45 42 42 43 40 37 37 39 40 41 44 47 46 41 36 33 30 28 27 27 25 23 22 22 21 22 23 24 26 26 26 26 25 25 25 26 25 24 23 22 21 21 20 20 21
90 90 91 92 93 92 92 91 89 88 86 81 74 69 67 62 60 65 67 66 69 72 70 64 60 57 57 54 47 43 43 39 35 37 41 42 43 45 47 46 43 43 43 42 41 40 40 39 40 44 49 49 46 40 34 30 27 24 23 24 23 22 22 22 21 22 24 26 27 26 27 27 26 26 27 26 26 25 24 23 22 22 21 21 21
89 90 92 93 94 94 93 92 89 85 80 76 71 67 65 66 68 69 68 70 72 67 57 49 49 51 48 41 32 28 29 31 33 37 39 40 43 44 45 45 44 44 43 42 42 43 41 39 42 47 51 48 44 39 33 29 26 23 22 22 22 22 23 22 22 24 27 28 27 27 28 28 28 28 27 27 26 26 25 25 24 23 22 21 21
93 95 95 94 96 96 95 94 90 82 75 73 74 74 75 77 76 71 67 67 63 55 50 48 48 43 30 24 21 20 27 33 35 36 37 39 43 44 43 43 42 42 42 42 42 42 41 40 44 49 49 45 41 38 32 28 25 23 22 22 23 23 23 23 23 24 28 30 28 28 29 29 29 28 27 26 26 26 26 26 26 24 23 22 21
95 93 92 91 92 92 91 84 77 76 73 73 76 78 77 76 75 70 63 57 55 57 58 56 50 35 24 20 17 22 34 36 33 35 37 40 43 44 43 41 40 41 41 39 39 39 40 42 47 49 45 40 39 37 32 27 24 23 24 23 23 23 22 23 23 24 28 30 29 29 29 29 29 28 28 27 27 27 27 27 27 25 24 23 23
87 86 83 83 83 81 75 66 65 71 74 74 74 75 73 72 71 67 62 61 63 65 65 62 50 35 29 20 14 25 39 40 36 38 41 44 46 46 44 42 42 41 39 38 38 38 40 45 49 46 39 37 38 37 32 27 24 23 24 23 23 22 22 23 24 24 28 31 30 30 30 29 29 29 29 29 29 28 28 27 28 27 25 24 25
79 77 72 71 74 71 66 64 66 70 71 70 70 70 70 68 67 65 65 66 66 62 61 56 39 28 27 19 15 27 40 43 42 44 48 49 48 46 44 43 41 38 38 38 37 39 43 47 47 41 36 37 38 35 32 27 23 23 24 24 24 25 25 26 24 25 29 30 29 30 31 30 30 30 31 31 31 29 28 28 28 28 26 25 26
74 70 67 64 66 66 66 66 66 67 68 67 67 67 67 65 65 63 61 57 54 49 48 43 30 25 25 20 23 36 47 52 51 49 50 51 49 47 45 42 39 37 37 37 37 42 44 43 41 37 37 38 35 33 31 28 25 24 25 26 26 26 27 26 24 26 30 31 30 31 32 32 32 32 32 32 32 31 30 29 29 28 28 27 27
74 71 70 68 67 67 67 66 66 67 67 66 64 64 62 59 55 52 50 49 48 46 43 38 35 34 33 33 39 51 58 58 55 52 50 50 49 46 44 42 39 36 37 38 39 42 40 37 37 37 37 35 31 30 27 25 26 27 28 29 27 27 27 26 25 25 29 31 31 31 31 32 32 32 32 32 33 32 31 30 30 30 29 29 29
72 71 70 71 71 70 68 67 66 66 66 64 61 57 53 51 50 50 52 50 45 42 37 36 38 41 43 45 50 56 58 55 50 49 48 49 48 44 42 40 37 34 37 39 40 43 39 36 36 35 33 30 29 28 25 25 26 27 29 30 29 29 28 28 28 26 29 32 31 31 32 33 33 33 33 33 33 33 32 31 31 31 31 31 29
69 68 68 69 69 67 66 65 64 65 66 64 61 58 57 57 58 58 54 47 40 36 34 36 41 45 48 50 54 56 54 51 47 44 44 46 44 40 38 37 37 39 42 41 43 46 40 34 32 30 29 29 29 28 28 29 28 28 30 30 30 31 29 28 28 26 28 32 32 33 35 35 36 36 35 34 34 33 33 32 33 33 32 32 31
65 65 65 65 65 65 64 62 62 64 64 63 62 62 62 62 61 58 52 45 39 36 38 43 47 50 53 55 58 58 54 52 50 44 40 41 41 41 42 42 46 47 46 46 46 43 34 30 28 26 25 24 26 29 30 30 30 30 30 29 27 25 25 25 25 24 26 30 33 35 36 36 36 35 33 32 32 32 33 33 33 34 33 33 33
63 63 63 63 64 63 62 60 59 60 61 62 60 59 59 57 54 49 43 40 38 40 44 49 52 56 59 61 63 61 56 55 54 49 43 43 46 49 50 50 52 52 52 50 43 31 25 24 23 19 18 19 21 24 25 25 25 26 26 24 22 21 22 23 24 25 26 29 33 36 37 36 35 33 33 32 31 31 33 34 34 35 35 35 35
61 61 61 61 61 61 60 58 57 57 59 59 57 57 58 54 49 42 37 38 41 46 51 55 59 62 65 67 67 64 60 57 57 55 51 52 52 54 55 55 55 56 55 51 40 31 24 19 19 17 18 22 22 20 22 23 21 23 23 23 23 23 23 25 26 27 27 28 32 35 35 35 34 34 34 33 31 30 32 35 36 37 37 37 37
60 60 60 59 59 59 58 56 56 57 58 58 54 54 55 53 48 45 46 50 53 56 59 61 63 65 66 66 66 65 64 61 60 59 58 58 56 55 55 54 53 50 44 36 32 32 26 21 21 20 21 22 22 22 22 20 22 24 23 23 24 24 26 27 27 27 28 28 31 32 32 33 33 32 31 30 30 30 31 35 36 38 38 38 38
59 59 58 57 57 56 54 52 53 54 54 56 55 53 54 53 51 49 51 54 54 56 57 57 58 59 60 61 61 62 62 61 60 60 59 57 54 52 50 47 42 35 27 22 25 28 25 24 23 21 22 21 21 21 15 12 21 27 26 24 25 26 29 30 28 27 27 26 26 25 26 27 25 24 26 28 29 29 30 33 35 36 37 37 38
58 57 56 54 51 50 50 47 44 44 46 47 46 46 46 45 45 44 45 46 47 47 48 49 50 51 53 54 56 56 57 57 56 55 53 50 47 44 41 37 30 23 21 21 25 28 27 27 26 24 24 24 24 22 14 12 21 26 28 29 30 31 31 30 27 25 24 23 19 16 20 24 22 19 22 25 27 28 29 32 33 34 35 35 36
56 54 52 49 45 43 44 39 31 31 32 30 27 29 33 33 33 35 37 39 39 39 41 43 44 47 49 50 51 51 51 51 49 47 45 42 40 36 31 27 22 20 23 24 27 29 29 29 28 26 25 24 26 25 20 19 21 24 28 30 31 31 29 28 26 24 23 21 16 14 18 23 24 23 26 29 29 28 28 29 31 32 34 34 34
53 49 43 41 42 40 40 36 28 23 16 16 23 27 29 28 29 33 34 32 33 36 39 42 44 46 46 46 46 46 45 43 42 40 38 36 33 29 25 23 22 23 26 28 29 31 32 32 30 26 25 26 27 26 23 21 20 23 27 27 28 30 29 27 24 22 21 20 16 18 20 19 20 25 29 31 31 30 29 28 28 29 30 32 34
45 42 39 40 41 38 38 37 34 31 22 23 28 30 29 30 32 34 33 32 35 40 42 42 42 42 42 42 41 40 39 37 36 35 33 31 28 26 25 25 26 26 28 29 30 32 34 34 31 28 30 30 27 25 25 24 22 22 23 23 26 31 29 23 21 20 21 21 18 21 22 19 20 26 29 28 29 30 30 29 28 27 27 29 33
35 36 40 40 36 34 34 35 37 39 36 33 28 26 32 36 38 38 38 40 43 44 43 41 39 39 39 38 37 36 35 33 33 32 30 28 26 26 27 27 29 29 30 31 31 33 35 35 32 31 32 30 26 25 26 25 23 23 23 22 23 24 21 16 18 23 24 24 21 22 23 23 26 29 29 28 29 30 30 30 29 27 28 28 29
30 35 40 36 29 28 29 31 34 35 35 33 28 31 39 41 42 42 43 45 45 42 40 39 38 37 36 34 33 32 31 31 30 28 27 26 25 26 27 28 30 32 33 34 34 35 37 36 34 34 33 29 25 25 26 25 25 27 27 25 22 20 18 15 18 25 26 25 23 21 24 26 29 30 28 27 30 32 32 32 30 28 28 28 25
28 36 39 36 31 29 29 31 32 32 34 36 36 40 43 43 44 44 44 43 42 39 37 37 36 34 32 31 31 30 30 29 27 25 24 24 24 25 27 29 31 33 34 36 37 38 39 38 38 38 37 34 29 27 27 25 26 29 27 25 26 25 21 19 21 25 25 23 23 23 24 26 27 25 24 23 25 27 28 30 30 26 25 27 27
32 38 38 36 36 37 36 35 34 34 38 42 43 45 44 45 45 43 41 39 36 34 32 31 29 28 28 29 30 29 28 27 25 23 22 21 22 24 26 29 31 33 34 35 37 38 38 38 39 40 38 37 34 29 26 25 26 29 27 25 27 28 24 22 24 25 25 25 24 23 21 22 25 25 26 26 25 25 26 28 30 29 27 28 30
32 36 37 36 37 38 37 37 37 36 39 41 39 42 45 46 46 44 41 38 34 31 28 26 23 22 23 25 26 27 27 26 24 22 20 20 20 21 23 26 28 31 33 35 36 35 35 35 36 36 34 32 32 29 27 27 28 30 29 26 26 27 27 25 24 25 26 27 26 25 22 21 24 25 28 31 31 30 30 31 32 32 31 32 35
30 35 36 34 35 36 34 37 40 39 40 39 36 39 44 46 46 46 44 40 35 32 30 29 26 23 23 23 23 24 24 23 22 20 18 17 18 18 19 21 24 26 28 30 32 32 32 32 31 31 30 29 30 29 28 29 30 29 28 28 26 26 27 27 27 28 28 28 28 28 27 26 25 26 29 31 32 32 32 32 30 28 29 32 36
30 36 34 31 33 36 37 41 43 43 42 41 40 42 45 47 49 48 47 43 39 37 35 34 31 28 26 25 23 22 22 21 20 18 16 15 15 16 16 17 18 21 23 25 26 27 28 29 29 29 28 28 28 28 29 29 29 29 28 27 26 27 27 28 31 33 31 30 31 30 29 28 28 30 30 30 31 32 32 30 29 29 32 35 38
28 35 33 28 32 36 38 42 44 43 43 43 46 49 51 53 54 53 52 49 46 44 41 38 36 34 31 28 26 24 24 23 22 21 19 19 19 19 19 19 18 19 19 20 22 24 26 27 27 28 27 27 27 27 28 27 26 27 27 26 26 27 28 29 32 34 33 33 33 33 32 30 31 33 33 31 31 31 32 32 32 33 33 35 38
30 32 30 25 28 33 36 39 40 42 44 48 52 54 55 55 55 55 54 53 51 49 46 42 39 36 34 31 29 28 28 28 28 27 27 26 25 25 24 23 22 20 19 19 19 21 23 25 26 26 25 25 26 26 26 26 26 26 26 24 24 26 28 30 32 33 34 35 35 36 37 36 34 34 34 33 32 31 31 33 34 35 35 35 36
29 29 29 27 27 31 36 38 38 40 43 49 52 53 53 53 53 53 53 52 50 49 48 45 42 39 36 32 30 29 30 31 32 32 32 32 30 28 27 26 25 24 23 21 21 20 20 22 23 23 23 23 24 24 25 25 25 26 25 23 23 25 27 29 32 34 35 36 36 37 38 39 39 38 37 36 35 35 35 35 35 35 35 34 34
29 28 30 33 34 38 41 40 39 41 42 44 45 44 45 46 48 49 49 48 47 47 46 45 43 42 39 37 35 33 33 33 33 34 34 33 32 31 30 29 28 27 26 25 23 21 19 19 19 19 19 20 21 22 24 24 25 25 25 24 24 24 25 27 30 33 35 36 36 36 38 39 40 41 42 41 40 39 40 41 41 40 38 36 35
37 36 35 38 42 46 47 43 41 42 41 41 41 40 39 39 40 41 41 41 41 42 41 41 41 42 41 40 39 38 38 38 37 36 35 35 35 33 32 32 31 30 30 28 26 24 22 20 19 18 18 19 20 21 22 22 23 25 25 24 24 23 25 28 30 32 36 38 38 38 39 41 42 43 44 45 43 41 42 44 46 48 48 46 45
Wind_Direction
275 278 280 281 282 284 286 287 288 289 290 290 291 292 293 294 295 297 299 300 301 301 302 303 303 304 305 305 305 306 306 305 305 305 305 307 308 309 309 308 308 307 307 306 305 303 302 301 300 299 298 297 297 296 295 294 294 294 295 296 298 299 300 300 299 297 296 295 294 294 295 298 302 303 302 304 302 297 294 292 292 293 289 285 283
276 278 279 281 283 285 286 287 288 289 290 290 291 291 292 294 295 297 298 300 300 301 301 302 303 303 304 304 304 305 305 305 305 305 305 306 307 308 308 308 307 307 306 305 304 302 301 300 299 298 297 297 296 295 294 294 294 295 296 297 298 299 300 300 297 295 293 292 292 293 295 298 301 301 301 302 298 295 293 291 293 292 287 284 282
276 278 280 282 284 285 285 287 288 289 289 290 290 291 292 294 296 297 297 299 300 300 301 301 302 302 302 303 303 304 305 305 305 305 305 306 307 308 308 307 307 306 305 303 302 301 300 299 298 297 297 296 295 295 294 294 294 295 296 297 299 299 299 297 294 291 290 289 290 292 294 298 300 298 299 299 295 293 292 291 292 290 285 283 281
278 279 281 282 283 284 285 286 287 288 289 290 290 292 293 295 295 296 297 298 299 300 300 300 300 301 302 302 303 304 304 304 304 304 304 306 307 307 307 306 305 304 303 302 301 300 299 298 297 296 296 295 294 294 294 294 295 296 296 297 298 298 297 292 287 286 285 286 288 290 294 298 297 296 297 295 292 291 291 292 292 287 284 282 280
279 280 281 282 283 284 285 286 287 288 289 289 290 292 294 294 295 295 296 297 298 299 299 299 300 300 301 302 303 303 303 303 303 303 304 306 307 307 306 305 304 303 301 300 300 299 298 297 296 295 295 294 293 293 293 294 295 295 296 297 297 296 292 285 281 282 283 285 287 290 294 295 294 293 294 292 289 289 290 291 290 285 282 280 278
280 281 281 282 283 284 284 285 286 287 288 289 290 292 293 294 294 295 296 297 297 298 298 299 299 300 301 302 302 302 302 302 303 303 305 306 306 306 305 304 303 301 300 300 299 298 297 296 295 294 294 293 293 293 293 294 294 295 295 296 295 293 287 280 279 281 283 284 287 291 293 293 291 290 290 288 287 288 289 291 288 283 281 279 275
280 281 282 282 283 283 284 285 286 287 288 289 290 292 293 293 294 294 295 295 296 297 298 299 300 301 301 301 301 301 302 302 302 303 305 305 305 305 304 303 303 302 301 301 300 298 297 295 294 294 294 294 294 294 294 294 294 295 295 294 292 288 282 279 280 281 282 285 288 291 291 289 287 287 286 285 286 287 288 289 286 282 280 277 273
280 281 281 282 282 282 283 284 285 286 287 289 290 291 292 292 292 293 294 295 296 297 298 299 300 300 300 301 301 301 301 301 302 303 304 304 305 304 303 303 304 303 302 301 301 298 296 295 295 295 295 295 295 295 295 295 295 295 294 292 288 283 280 280 280 281 283 286 289 290 288 285 283 283 282 282 284 285 286 287 283 280 279 275 271
279 280 280 281 281 281 282 283 284 285 287 288 289 290 291 291 292 293 293 294 296 297 298 298 299 299 300 300 300 300 300 302 303 303 303 304 304 303 303 304 304 302 301 301 299 297 296 295 295 295 296 296 296 296 296 296 295 294 293 291 286 283 281 281 282 282 284 286 287 286 283 280 280 280 279 280 283 284 284 284 280 278 276 272 268
278 279 279 279 280 281 281 282 283 285 287 288 289 289 290 291 292 292 294 295 296 297 297 298 298 299 299 299 299 300 301 303 303 304 304 304 303 302 302 303 301 299 299 298 296 295 295 295 295 296 296 297 297 296 296 295 294 294 291 285 282 281 282 282 282 283 284 284 283 280 277 276 277 277 276 278 282 282 282 282 278 275 273 268 265
278 278 278 279 280 280 281 282 284 285 286 287 288 289 290 291 292 293 294 295 296 297 297 297 298 298 298 298 299 301 302 304 305 306 306 305 304 302 302 302 300 298 298 296 294 294 295 295 296 297 297 297 297 296 295 294 292 288 282 279 279 280 281 282 282 282 283 281 278 274 272 273 274 275 276 278 279 279 280 280 276 273 270 265 262
277 277 278 279 279 280 281 283 284 285 286 287 289 290 290 291 292 294 294 295 296 296 296 296 297 297 297 299 301 302 304 306 307 307 306 306 305 304 302 299 297 298 298 298 295 295 296 297 298 298 298 297 296 296 296 294 290 285 282 281 280 280 281 281 281 281 280 278 273 269 269 270 271 274 276 276 276 276 278 277 274 272 267 262 259
275 276 277 278 279 280 282 283 284 286 287 288 289 290 291 292 293 293 293 294 295 295 295 296 296 296 297 301 303 303 304 305 306 306 304 304 304 301 298 295 296 299 300 300 298 298 300 301 300 299 299 298 297 298 296 293 289 286 285 283 280 279 280 280 280 279 278 274 269 268 269 269 271 273 276 275 271 272 276 275 272 270 264 259 256
275 276 277 278 279 281 282 283 285 287 288 289 289 291 292 292 292 292 292 294 296 296 295 294 295 295 297 302 302 301 302 303 304 303 302 302 300 296 293 294 298 301 302 302 302 302 302 302 302 302 301 300 299 298 296 293 289 287 285 282 281 279 279 279 278 277 274 268 268 270 270 270 270 272 274 271 267 270 273 272 271 268 261 256 255
275 277 277 278 279 281 283 284 286 287 288 288 288 290 291 292 293 293 293 296 297 296 295 294 295 296 298 301 300 300 300 301 302 301 300 299 296 292 291 296 301 303 304 304 303 303 303 304 305 306 305 304 301 299 296 293 290 287 284 282 281 279 279 277 276 275 270 266 270 272 271 270 269 270 271 265 263 268 270 270 269 265 258 253 255
275 277 277 278 279 281 283 283 285 287 287 286 286 289 291 292 294 293 294 296 296 294 294 295 296 297 299 300 299 299 300 301 301 298 297 296 291 288 293 300 304 304 303 302 302 302 304 306 309 310 309 307 304 300 297 294 291 287 284 282 281 280 279 275 274 272 266 267 272 273 273 271 269 268 265 260 261 266 268 268 267 262 256 253 255
275 276 277 277 278 280 280 281 283 283 283 284 285 287 289 289 290 290 291 292 292 291 293 296 297 298 298 298 298 300 301 301 297 295 295 294 290 289 298 304 304 303 302 302 302 303 304 308 312 314 313 310 306 302 299 295 291 288 285 282 281 281 278 275 273 266 263 269 273 273 273 271 268 265 259 257 261 265 267 267 265 258 253 252 254
274 276 277 278 278 279 279 280 281 281 281 283 285 286 286 287 287 287 288 289 290 291 294 297 298 297 297 297 299 301 302 299 294 293 294 293 291 295 304 307 306 306 305 306 307 306 306 311 316 319 319 316 312 306 301 296 292 289 286 283 282 280 277 274 268 261 265 272 273 273 271 269 265 261 257 257 260 264 266 265 262 256 252 252 254
275 276 276 277 278 278 279 279 280 281 282 284 285 286 286 286 287 287 288 290 292 295 296 296 296 296 295 297 300 301 299 296 293 293 292 291 293 302 309 309 308 307 307 309 309 306 309 314 318 320 322 321 318 311 304 298 293 291 287 285 281 276 274 270 262 262 269 272 272 271 268 265 262 259 258 258 261 263 265 264 261 255 251 252 255
274 275 275 275 276 277 278 279 280 281 283 285 286 285 286 286 287 289 292 293 294 296 295 293 294 295 294 298 300 298 295 294 294 291 288 290 298 307 309 309 306 303 305 307 304 304 309 314 317 318 321 321 317 312 306 299 293 290 289 286 278 271 270 266 262 267 271 271 270 268 266 263 261 259 259 260 262 262 264 263 260 255 251 251 255
272 272 273 274 275 276 277 279 280 281 283 284 283 282 284 285 285 289 291 292 293 294 295 293 293 294 297 302 301 295 292 291 288 285 289 295 303 307 307 307 305 303 305 304 301 303 307 313 316 316 320 318 312 308 304 298 291 286 287 286 276 267 267 266 267 272 272 269 266 265 264 261 260 259 259 261 262 262 262 262 259 255 251 250 254
272 273 274 275 276 278 278 279 281 283 284 282 279 279 280 281 282 286 288 290 291 291 294 291 293 300 304 303 295 291 294 290 285 288 294 299 303 306 307 306 304 303 302 301 302 304 305 311 314 315 318 314 307 304 300 294 287 282 284 285 278 269 267 269 271 274 270 266 266 266 264 262 261 260 260 261 262 261 261 260 260 256 251 249 256
274 276 276 277 278 279 279 281 282 282 280 278 278 280 281 281 282 284 285 286 283 285 288 285 296 308 302 292 286 293 297 292 291 292 294 298 304 306 306 305 302 300 298 300 303 303 305 309 312 315 315 309 303 302 297 289 283 280 280 282 280 275 272 272 274 273 271 269 268 266 264 263 261 260 261 263 264 263 262 260 259 258 253 249 256
275 276 277 278 279 280 281 282 282 280 278 277 280 281 281 281 281 282 280 277 273 279 281 281 295 297 276 279 293 304 297 289 291 292 294 301 306 306 304 301 297 295 296 301 303 301 305 307 311 314 309 302 300 300 296 287 280 278 278 280 280 277 275 276 277 276 272 270 268 266 265 264 261 261 262 264 266 266 265 262 260 259 255 252 254
274 276 277 278 279 281 282 280 279 279 279 278 279 279 279 279 279 278 276 272 271 276 277 280 288 280 269 275 288 298 290 284 289 293 296 302 305 304 300 296 292 293 295 299 298 299 305 308 311 311 302 298 299 298 294 285 280 281 281 280 280 278 281 283 283 280 274 271 268 266 266 265 262 262 262 264 267 267 267 265 261 260 257 256 257
275 276 277 277 277 278 278 277 277 278 278 277 278 279 279 279 279 278 276 274 275 276 277 279 278 272 275 270 267 282 282 285 291 295 297 302 305 303 298 293 290 290 293 296 296 301 308 310 310 305 297 298 298 295 293 284 278 283 282 281 281 281 285 287 286 282 279 278 275 271 268 267 265 264 263 265 267 266 266 264 261 259 257 258 260
272 273 274 275 275 276 276 277 277 276 277 277 278 279 278 278 279 278 276 275 275 276 278 274 257 256 264 250 259 274 281 288 293 296 299 302 303 301 297 290 286 288 290 292 297 306 311 310 308 301 297 299 296 293 291 283 274 274 276 279 281 281 286 289 287 286 286 285 282 278 273 270 269 268 267 266 267 266 264 261 258 257 257 258 260
271 271 272 273 274 275 276 276 277 277 278 278 278 278 277 277 276 275 274 275 276 277 276 263 242 241 242 241 259 273 281 288 294 297 297 300 300 299 295 285 282 286 289 294 302 310 310 307 304 298 299 299 296 293 289 283 277 276 277 279 281 280 283 284 283 286 289 286 282 280 278 274 271 270 270 269 268 267 263 259 256 256 255 256 258
272 272 272 273 274 275 275 276 277 276 276 276 277 277 275 274 273 274 276 276 277 275 266 248 236 237 239 247 263 276 285 289 294 296 295 298 297 293 288 278 275 280 289 298 306 310 306 301 298 295 297 297 294 293 290 288 283 280 278 277 277 276 278 278 275 277 283 284 283 283 283 279 275 274 274 272 271 269 264 256 253 254 254 254 255
273 274 274 275 276 276 275 276 276 275 274 274 274 274 272 273 275 276 276 275 271 265 253 241 238 239 242 252 268 279 286 287 288 291 293 295 291 285 278 271 271 277 285 292 299 304 298 293 292 290 295 295 292 288 286 285 282 279 277 276 276 275 275 273 270 271 276 280 281 282 281 279 277 276 275 272 270 268 264 256 250 251 253 254 253
274 275 275 276 276 276 277 276 276 276 276 275 274 273 272 273 275 276 275 270 261 252 246 242 242 243 246 256 270 278 281 282 282 284 286 285 281 278 275 273 275 278 283 289 296 297 289 285 286 289 296 295 288 284 280 277 276 275 274 273 273 272 270 267 269 269 272 275 277 278 277 275 274 273 271 270 269 264 260 254 250 250 251 252 253
275 275 276 276 276 277 278 278 279 280 279 279 279 277 275 273 274 275 271 264 253 245 244 245 247 251 255 263 272 276 277 278 279 278 275 274 274 275 276 276 278 280 283 288 291 286 279 281 282 284 284 277 276 283 285 279 274 272 268 267 265 265 265 266 269 268 269 272 274 276 275 273 272 270 268 267 267 262 256 252 249 249 249 250 251
275 276 276 277 278 279 280 281 282 283 283 282 281 279 277 275 274 268 260 257 253 250 252 254 257 260 265 269 273 275 277 278 278 278 275 274 274 274 275 276 277 280 282 284 281 271 267 264 266 262 255 258 259 269 283 284 280 271 265 265 267 270 272 274 273 270 269 269 271 274 274 273 271 269 267 266 267 264 257 252 250 249 248 248 249
276 277 278 278 280 282 283 285 285 285 284 283 281 278 277 275 271 265 262 262 261 262 264 264 265 267 270 272 274 276 278 278 279 279 278 278 277 276 277 277 279 281 282 282 270 263 257 247 251 251 250 258 259 266 276 283 286 280 271 270 275 280 282 283 282 279 275 271 272 273 273 273 271 269 267 266 268 266 259 253 252 251 251 251 251
277 278 279 281 284 286 286 287 287 287 285 283 283 280 277 275 272 270 268 266 266 268 269 270 271 272 273 274 275 277 278 279 279 279 279 280 280 279 280 281 283 281 277 268 253 251 252 249 248 248 252 258 263 267 268 283 295 293 286 281 283 287 288 287 282 279 279 277 277 275 274 274 272 269 266 267 267 266 261 255 254 255 253 252 251
278 280 281 284 286 286 287 288 287 286 286 287 287 284 279 276 273 269 266 266 268 271 273 276 277 278 278 278 277 278 278 279 280 281 282 283 283 284 284 284 283 272 259 251 244 246 251 248 242 245 253 259 266 266 263 291 298 293 287 284 286 286 287 286 280 278 279 280 277 270 269 267 259 250 251 258 260 261 259 255 255 256 254 251 249
281 283 286 286 282 278 277 278 277 276 284 289 283 280 279 272 265 263 265 267 270 274 279 281 281 282 281 280 280 280 281 283 284 285 286 286 286 286 285 281 273 256 247 245 242 245 248 243 239 243 248 253 260 261 265 280 289 290 286 284 284 283 284 283 282 282 280 278 264 243 248 253 252 248 245 248 251 254 254 252 253 256 255 253 250
284 287 287 279 273 268 263 261 254 246 255 259 258 271 273 261 257 263 267 269 272 279 284 284 284 283 282 281 283 283 284 286 287 287 287 286 285 283 275 265 257 248 243 243 243 241 243 244 242 242 248 251 254 261 266 271 283 292 289 286 282 282 285 281 280 283 277 273 253 231 235 238 242 250 250 249 250 251 252 253 253 255 256 255 254
287 288 280 268 267 266 261 257 244 233 234 239 255 269 261 254 260 265 267 270 277 284 288 288 286 285 285 285 286 286 287 287 287 286 284 281 278 273 264 255 251 246 242 241 241 240 241 245 243 242 247 249 255 267 268 269 279 279 278 285 285 286 286 278 276 276 271 268 242 221 230 232 232 244 251 253 251 248 249 253 255 253 255 257 257
283 277 269 264 266 267 263 257 244 242 247 245 252 255 245 254 264 264 269 276 284 290 292 292 290 289 288 288 288 287 287 286 284 282 279 275 269 263 258 252 248 246 243 241 241 240 240 242 242 243 244 247 261 273 269 269 271 262 260 272 282 284 279 269 268 264 262 261 239 216 223 231 235 243 250 255 255 253 251 251 254 253 250 254 258
274 267 263 260 260 260 259 253 244 244 243 237 241 240 244 259 266 266 275 283 289 294 294 292 290 288 287 287 287 286 285 284 281 279 276 271 264 258 255 252 249 247 244 243 243 243 242 242 242 244 246 250 262 269 268 267 264 260 258 258 261 265 259 247 249 253 253 252 244 231 229 233 241 248 253 258 259 258 254 250 253 254 250 252 255
263 261 260 256 250 244 242 242 241 238 235 237 244 243 249 260 263 270 282 288 291 291 289 288 286 283 283 286 286 285 285 283 280 277 272 266 261 256 254 253 252 250 247 245 245 245 246 247 247 247 248 250 253 257 263 264 260 258 254 249 248 251 250 238 236 245 247 244 244 243 239 236 239 243 250 257 259 256 254 253 253 251 250 255 256
259 257 257 256 249 242 239 238 239 237 239 245 250 249 252 256 261 273 283 286 288 287 285 284 283 281 282 283 282 281 282 281 279 276 270 265 260 254 252 252 252 252 251 249 248 248 248 248 249 249 249 249 248 250 257 256 254 253 249 245 244 244 245 237 235 243 245 244 242 241 242 241 238 234 236 244 250 248 249 253 254 251 252 258 260
262 257 255 254 250 246 244 242 241 241 243 247 251 251 250 253 261 272 278 280 282 281 278 275 277 280 282 281 278 276 276 276 277 275 271 266 261 257 254 252 252 252 252 252 252 252 251 250 250 249 247 247 243 242 249 251 251 251 247 244 243 242 238 232 234 241 244 245 244 241 240 242 245 240 237 240 244 244 244 249 253 255 255 256 260
261 255 252 249 246 247 245 241 241 244 246 247 247 248 248 252 260 268 273 276 277 276 273 271 273 277 280 278 275 273 273 274 275 274 272 271 268 265 261 258 256 254 253 253 253 253 252 251 251 248 244 243 240 239 245 249 250 249 244 242 244 244 237 232 236 240 242 243 245 245 241 240 244 246 243 242 243 243 242 243 244 245 244 244 251
256 255 251 244 241 244 243 240 242 246 248 247 245 245 248 254 261 266 270 271 271 271 272 272 273 276 277 274 271 270 270 272 273 273 274 276 275 274 273 272 269 264 260 257 256 255 254 252 251 249 246 244 243 243 245 248 249 247 244 241 241 242 241 238 239 241 241 240 242 244 241 239 241 244 246 246 247 245 241 239 238 236 236 235 238
239 248 248 241 239 244 244 243 246 249 250 250 248 249 252 258 263 266 268 268 268 270 270 270 270 273 273 270 267 266 267 269 271 272 275 279 283 284 282 282 284 281 275 270 266 262 259 257 255 254 252 250 250 249 248 248 248 247 243 240 240 243 243 239 236 238 240 238 239 242 241 239 239 242 245 247 249 248 243 241 239 236 237 237 236
228 241 246 242 241 249 252 252 253 254 253 252 254 256 259 262 266 268 270 271 271 272 272 270 268 268 268 267 266 265 267 269 271 274 277 281 287 291 289 285 286 289 287 285 283 276 268 263 260 259 257 255 253 252 250 247 246 245 242 242 245 246 243 237 234 238 240 239 241 243 243 241 240 241 242 244 246 245 242 241 239 236 238 242 242
233 244 251 249 241 246 253 252 249 248 250 252 255 258 260 263 266 268 270 272 273 273 272 270 269 267 265 265 266 267 269 272 275 278 279 282 286 292 293 288 285 287 289 291 293 290 280 270 266 262 259 257 254 253 252 248 245 242 240 243 247 248 245 236 234 239 241 241 243 244 245 244 242 243 244 244 243 241 237 236 236 235 236 242 245
225 234 246 246 232 231 238 240 239 242 248 254 256 259 262 264 266 267 269 270 271 271 271 270 268 267 265 263 264 266 269 272 276 279 280 283 286 290 292 289 286 287 290 293 297 297 292 282 274 268 262 260 258 256 255 251 245 240 240 244 246 249 248 236 232 238 241 240 241 243 245 245 245 247 249 248 247 244 241 239 238 237 236 236 240
215 218 229 237 232 230 233 236 240 246 250 255 258 260 262 265 267 268 268 268 269 269 269 270 269 268 267 265 264 265 267 269 273 277 279 283 285 288 290 290 288 290 294 296 298 300 297 290 282 275 270 266 265 263 259 254 248 240 239 246 250 251 250 240 232 236 241 240 240 243 246 247 248 250 251 251 250 250 250 248 246 244 243 241 241
Height
10900 10899 10899 10898 10898 10897 10897 10896 10896 10895 10894 10893 10891 10890 10888 10886 10886 10886 10885 10884 10883 10882 10880 10879 10877 10875 10872 10870 10868 10866 10863 10860 10857 10855 10854 10852 10850 10847 10844 10840 10837 10835 10832 10830 10827 10825 10822 10820 10818 10817 10815 10814 10813 10811 10810 10808 10807 10806 10805 10803 10803 10802 10801 10800 10799 10798 10797 10796 10795 10794 10793 10792 10792 10790 10789 10788 10787 10786 10785 10784 10783 10783 10782 10782 10782
10896 10896 10895 10895 10894 10893 10893 10893 10892 10891 10890 10889 10887 10886 10884 10882 10881 10881 10880 10879 10878 10876 10875 10874 10873 10870 10867 10865 10863 10861 10858 10855 10852 10850 10848 10846 10844 10842 10838 10835 10832 10829 10827 10824 10822 10819 10817 10815 10813 10811 10810 10809 10807 10806 10805 10803 10802 10801 10800 10799 10799 10798 10797 10796 10795 10794 10793 10792 10791 10790 10789 10789 10788 10787 10786 10785 10784 10783 10783 10782 10781 10780 10780 10780 10780
10893 10892 10892 10891 10891 10890 10889 10888 10888 10887 10886 10885 10883 10881 10880 10878 10877 10876 10874 10873 10872 10871 10871 10869 10868 10866 10863 10860 10858 10856 10854 10850 10847 10845 10842 10840 10838 10835 10832 10829 10826 10823 10821 10819 10816 10814 10812 10810 10808 10806 10805 10803 10802 10801 10800 10799 10798 10797 10796 10795 10794 10793 10793 10792 10791 10791 10790 10789 10788 10786 10786 10785 10785 10784 10783 10782 10782 10781 10780 10780 10779 10778 10778 10778 10778
10889 10889 10888 10888 10887 10886 10884 10884 10883 10883 10881 10880 10878 10877 10876 10874 10872 10870 10869 10868 10867 10866 10865 10864 10862 10860 10858 10855 10853 10851 10849 10845 10842 10839 10836 10834 10831 10829 10826 10823 10820 10817 10815 10813 10811 10809 10806 10804 10803 10801 10800 10798 10797 10796 10795 10794 10793 10792 10791 10790 10790 10789 10789 10788 10787 10787 10786 10785 10784 10783 10782 10782 10781 10780 10780 10779 10779 10778 10778 10777 10776 10776 10776 10776 10776
10886 10886 10885 10884 10882 10881 10880 10879 10878 10877 10876 10875 10873 10873 10872 10870 10868 10866 10865 10863 10862 10861 10859 10858 10856 10855 10853 10850 10848 10845 10843 10840 10837 10833 10830 10828 10825 10823 10820 10817 10814 10811 10809 10807 10805 10803 10801 10799 10797 10796 10795 10793 10792 10791 10790 10789 10789 10788 10787 10786 10786 10785 10785 10784 10783 10783 10782 10781 10780 10780 10779 10779 10778 10777 10777 10777 10776 10776 10775 10775 10774 10774 10773 10773 10774
10882 10881 10880 10879 10878 10876 10875 10874 10873 10872 10871 10869 10869 10868 10867 10865 10863 10862 10860 10858 10857 10855 10854 10852 10851 10849 10847 10845 10842 10840 10837 10834 10831 10828 10825 10822 10819 10817 10814 10811 10809 10806 10804 10802 10800 10798 10796 10793 10792 10791 10789 10788 10788 10787 10786 10785 10784 10783 10783 10782 10781 10781 10781 10780 10779 10779 10778 10777 10777 10777 10776 10775 10774 10774 10774 10774 10774 10773 10773 10772 10772 10771 10771 10771 10771
10877 10876 10875 10874 10873 10871 10870 10869 10868 10867 10865 10864 10864 10863 10862 10861 10859 10857 10856 10853 10851 10850 10848 10847 10845 10843 10841 10839 10837 10834 10831 10828 10826 10824 10820 10816 10813 10811 10808 10806 10803 10801 10798 10796 10794 10792 10790 10788 10786 10785 10785 10784 10783 10782 10782 10781 10780 10779 10778 10778 10777 10777 10776 10775 10775 10774 10774 10773 10773 10773 10773 10772 10771 10771 10771 10771 10771 10771 10770 10770 10770 10769 10769 10769 10769
10873 10871 10870 10868 10867 10865 10865 10864 10863 10862 10860 10860 10859 10858 10857 10856 10854 10852 10850 10848 10846 10845 10843 10842 10840 10838 10835 10833 10831 10829 10826 10823 10820 10818 10814 10810 10807 10805 10802 10801 10799 10796 10793 10791 10789 10787 10785 10783 10782 10780 10780 10779 10778 10778 10777 10776 10775 10775 10774 10774 10773 10773 10772 10771 10770 10770 10770 10770 10770 10770 10769 10769 10768 10768 10768 10768 10768 10768 10768 10768 10767 10767 10767 10767 10767
10868 10866 10865 10863 10861 10860 10860 10859 10858 10857 10856 10855 10855 10854 10852 10851 10849 10846 10845 10843 10841 10840 10838 10836 10834 10832 10830 10828 10825 10823 10820 10817 10814 10811 10808 10805 10802 10799 10797 10796 10795 10792 10789 10787 10784 10782 10780 10779 10777 10775 10775 10774 10773 10773 10772 10772 10771 10770 10770 10769 10769 10768 10767 10766 10766 10766 10767 10767 10767 10766 10766 10766 10766 10766 10766 10766 10766 10765 10765 10765 10765 10765 10765 10765 10765
10863 10861 10859 10857 10855 10855 10854 10853 10852 10852 10851 10850 10849 10848 10847 10845 10843 10841 10839 10838 10836 10835 10833 10831 10829 10826 10824 10822 10820 10818 10815 10812 10808 10805 10803 10799 10797 10794 10792 10792 10790 10787 10785 10782 10779 10777 10776 10775 10772 10771 10770 10769 10769 10768 10767 10767 10766 10766 10766 10766 10764 10763 10763 10762 10762 10762 10763 10763 10763 10763 10763 10763 10763 10763 10763 10763 10763 10763 10763 10763 10763 10763 10763 10763 10763
10856 10854 10852 10851 10850 10850 10848 10848 10847 10847 10846 10845 10844 10843 10842 10840 10838 10835 10834 10832 10831 10829 10827 10825 10823 10821 10819 10817 10815 10813 10811 10807 10802 10800 10797 10795 10792 10789 10788 10786 10784 10782 10780 10778 10775 10773 10771 10770 10767 10766 10765 10764 10764 10763 10763 10763 10763 10762 10762 10761 10760 10759 10759 10759 10759 10759 10759 10759 10759 10760 10760 10760 10760 10760 10760 10760 10760 10760 10760 10760 10760 10761 10760 10761 10761
10850 10847 10845 10845 10845 10844 10844 10843 10842 10842 10841 10841 10839 10838 10836 10834 10832 10830 10829 10827 10825 10823 10821 10819 10817 10816 10814 10813 10811 10808 10805 10802 10798 10795 10792 10790 10788 10785 10783 10781 10779 10778 10776 10774 10772 10769 10767 10765 10763 10761 10760 10759 10759 10759 10758 10758 10758 10758 10757 10757 10756 10756 10755 10755 10755 10756 10755 10755 10756 10756 10756 10757 10757 10757 10757 10757 10757 10757 10758 10758 10758 10758 10758 10759 10759
10844 10841 10839 10839 10839 10839 10839 10838 10838 10838 10837 10836 10834 10832 10831 10828 10826 10824 10823 10822 10820 10817 10815 10814 10812 10811 10809 10809 10809 10804 10800 10797 10794 10791 10788 10786 10783 10781 10778 10776 10775 10773 10772 10770 10768 10766 10763 10762 10759 10757 10756 10755 10755 10755 10754 10754 10754 10753 10753 10753 10753 10752 10752 10752 10752 10752 10752 10752 10753 10753 10753 10754 10754 10754 10754 10755 10755 10755 10755 10756 10756 10756 10756 10757 10757
10838 10835 10834 10833 10833 10834 10835 10834 10834 10834 10833 10831 10828 10826 10824 10822 10820 10818 10817 10816 10815 10813 10811 10808 10806 10805 10803 10804 10804 10799 10794 10793 10790 10787 10784 10782 10779 10776 10774 10772 10771 10769 10767 10765 10763 10762 10760 10758 10756 10754 10752 10751 10751 10751 10751 10750 10749 10749 10749 10749 10749 10749 10749 10749 10749 10749 10749 10749 10750 10750 10750 10751 10751 10751 10751 10752 10752 10753 10753 10753 10753 10754 10754 10755 10755
10832 10830 10827 10826 10828 10830 10831 10832 10832 10831 10828 10824 10822 10821 10819 10817 10815 10813 10812 10811 10810 10808 10806 10803 10801 10799 10797 10797 10797 10792 10789 10787 10784 10782 10780 10778 10775 10772 10770 10769 10768 10766 10764 10762 10760 10758 10757 10755 10753 10751 10749 10748 10748 10747 10747 10746 10746 10746 10745 10745 10745 10746 10746 10747 10747 10746 10746 10747 10747 10747 10747 10747 10748 10748 10749 10749 10750 10750 10751 10751 10751 10752 10752 10752 10753
10827 10822 10819 10822 10825 10828 10828 10828 10828 10826 10821 10818 10816 10816 10815 10813 10811 10809 10808 10807 10805 10803 10801 10799 10796 10794 10791 10789 10787 10785 10782 10781 10779 10777 10775 10774 10771 10769 10767 10766 10765 10763 10761 10759 10757 10756 10754 10752 10750 10748 10747 10746 10744 10744 10743 10743 10742 10742 10742 10742 10742 10743 10743 10744 10744 10743 10743 10744 10744 10744 10744 10745 10745 10745 10746 10746 10747 10748 10748 10749 10749 10749 10750 10750 10751
10819 10814 10816 10820 10821 10823 10823 10822 10823 10820 10816 10814 10813 10812 10811 10810 10807 10805 10803 10802 10800 10798 10797 10795 10792 10789 10785 10782 10780 10778 10777 10776 10774 10773 10771 10769 10767 10766 10766 10765 10762 10759 10757 10756 10755 10753 10751 10749 10748 10746 10745 10744 10742 10741 10740 10740 10739 10739 10739 10739 10739 10740 10740 10741 10741 10741 10741 10742 10742 10742 10742 10742 10742 10743 10743 10744 10745 10745 10746 10746 10747 10747 10747 10748 10749
10813 10810 10813 10816 10815 10816 10816 10817 10817 10814 10811 10810 10810 10808 10805 10804 10802 10799 10797 10797 10795 10794 10793 10790 10787 10783 10780 10777 10775 10773 10771 10771 10770 10769 10768 10765 10763 10764 10763 10761 10759 10757 10755 10753 10752 10750 10748 10747 10746 10744 10744 10743 10741 10739 10738 10737 10736 10736 10736 10736 10737 10738 10738 10739 10739 10739 10740 10740 10739 10739 10739 10739 10740 10740 10741 10742 10743 10743 10744 10744 10745 10745 10745 10746 10746
10811 10807 10807 10809 10809 10810 10810 10812 10811 10809 10807 10806 10806 10803 10798 10797 10795 10792 10791 10791 10790 10788 10787 10785 10781 10777 10776 10774 10771 10769 10767 10766 10765 10764 10763 10761 10760 10760 10759 10756 10755 10754 10753 10751 10749 10748 10746 10744 10743 10742 10741 10741 10740 10738 10736 10735 10734 10734 10733 10733 10734 10735 10736 10736 10736 10737 10737 10737 10736 10736 10736 10737 10737 10738 10739 10740 10741 10741 10742 10742 10742 10743 10743 10744 10744
10805 10803 10802 10802 10801 10803 10805 10807 10807 10805 10803 10803 10802 10796 10791 10790 10787 10785 10785 10786 10784 10783 10781 10778 10775 10772 10771 10770 10768 10765 10762 10760 10759 10759 10759 10758 10758 10756 10754 10753 10752 10752 10751 10749 10747 10746 10744 10742 10741 10740 10739 10739 10738 10737 10735 10733 10732 10732 10731 10731 10732 10733 10734 10734 10735 10735 10735 10735 10733 10734 10734 10734 10735 10736 10736 10737 10738 10739 10739 10740 10740 10741 10741 10741 10742
10798 10796 10795 10794 10794 10796 10799 10803 10805 10802 10800 10799 10796 10790 10786 10784 10782 10781 10782 10782 10780 10778 10775 10772 10769 10768 10767 10766 10765 10762 10757 10754 10753 10754 10756 10756 10755 10753 10751 10750 10748 10748 10747 10746 10745 10743 10742 10740 10739 10737 10736 10736 10735 10735 10733 10731 10730 10730 10729 10729 10729 10731 10731 10732 10733 10733 10733 10731 10731 10732 10732 10732 10733 10733 10734 10735 10735 10736 10737 10738 10738 10739 10739 10739 10740
10791 10789 10788 10788 10787 10790 10793 10797 10801 10800 10797 10790 10786 10787 10785 10782 10780 10780 10781 10779 10776 10775 10771 10766 10766 10765 10764 10763 10762 10760 10753 10748 10748 10752 10754 10753 10751 10750 10749 10747 10744 10744 10743 10742 10741 10740 10739 10738 10736 10734 10733 10732 10731 10731 10731 10730 10728 10727 10727 10727 10727 10729 10729 10731 10732 10732 10729 10727 10729 10730 10730 10730 10730 10731 10732 10732 10733 10733 10734 10735 10736 10737 10737 10738 10738
10785 10784 10783 10782 10782 10786 10788 10792 10795 10795 10790 10780 10776 10781 10780 10777 10777 10780 10783 10778 10772 10771 10767 10762 10764 10764 10762 10760 10759 10756 10748 10743 10746 10750 10751 10750 10749 10748 10745 10743 10741 10740 10740 10739 10738 10736 10735 10734 10733 10732 10730 10728 10727 10728 10728 10728 10728 10726 10725 10725 10725 10726 10728 10728 10730 10730 10727 10725 10727 10728 10727 10728 10728 10728 10729 10730 10730 10731 10732 10732 10733 10734 10735 10736 10736
10779 10780 10779 10777 10778 10780 10783 10787 10789 10784 10779 10775 10772 10773 10772 10771 10772 10776 10780 10775 10769 10768 10763 10761 10764 10764 10762 10759 10756 10750 10740 10738 10744 10747 10748 10747 10746 10745 10742 10740 10738 10737 10736 10736 10735 10733 10732 10731 10730 10729 10727 10725 10724 10725 10725 10725 10725 10725 10724 10724 10724 10724 10726 10726 10727 10728 10726 10724 10725 10726 10725 10726 10726 10726 10727 10727 10728 10728 10729 10730 10731 10732 10733 10734 10734
10775 10776 10775 10773 10774 10776 10779 10780 10781 10775 10769 10769 10768 10766 10766 10765 10766 10769 10771 10767 10765 10764 10761 10760 10762 10763 10761 10757 10756 10748 10733 10732 10741 10744 10744 10744 10744 10742 10739 10737 10735 10734 10733 10733 10732 10730 10729 10728 10726 10725 10724 10722 10722 10722 10722 10723 10723 10723 10722 10722 10723 10723 10724 10725 10726 10726 10724 10722 10723 10723 10723 10724 10724 10724 10724 10725 10725 10725 10726 10727 10728 10729 10730 10731 10732
10771 10772 10770 10769 10770 10773 10775 10772 10771 10768 10762 10762 10761 10759 10759 10758 10760 10761 10761 10759 10759 10759 10757 10757 10757 10756 10756 10756 10757 10748 10733 10731 10738 10741 10741 10741 10741 10738 10736 10734 10732 10731 10730 10730 10728 10727 10726 10725 10723 10721 10720 10719 10719 10719 10720 10721 10721 10722 10721 10721 10722 10723 10724 10724 10725 10725 10721 10720 10721 10721 10721 10721 10721 10721 10722 10722 10722 10723 10723 10724 10725 10726 10727 10729 10729
10766 10765 10765 10766 10765 10766 10768 10765 10762 10760 10755 10755 10756 10754 10752 10752 10753 10753 10753 10752 10753 10754 10754 10754 10752 10752 10754 10756 10754 10745 10735 10733 10736 10738 10739 10739 10738 10735 10733 10731 10728 10727 10725 10726 10726 10725 10724 10721 10719 10717 10717 10717 10716 10717 10718 10719 10720 10720 10721 10721 10721 10722 10723 10723 10724 10723 10719 10717 10718 10718 10718 10718 10719 10719 10719 10719 10719 10720 10720 10721 10722 10723 10724 10726 10726
10758 10758 10759 10761 10760 10759 10760 10758 10755 10754 10750 10748 10750 10749 10747 10746 10746 10746 10747 10747 10748 10750 10750 10750 10749 10749 10752 10752 10747 10739 10734 10734 10734 10734 10736 10737 10736 10734 10732 10728 10725 10724 10721 10722 10722 10722 10720 10718 10717 10714 10714 10715 10714 10715 10716 10717 10717 10718 10719 10719 10720 10721 10722 10723 10723 10722 10717 10714 10715 10715 10715 10715 10715 10716 10716 10716 10716 10716 10717 10717 10719 10720 10721 10722 10723
10750 10752 10754 10753 10754 10752 10752 10751 10751 10749 10746 10745 10746 10744 10742 10740 10740 10741 10742 10743 10745 10746 10746 10747 10745 10744 10744 10744 10741 10735 10731 10734 10734 10732 10733 10734 10734 10733 10732 10728 10724 10722 10721 10721 10720 10719 10719 10719 10718 10715 10713 10713 10713 10713 10714 10715 10715 10716 10716 10717 10718 10719 10720 10721 10722 10722 10716 10711 10711 10712 10712 10712 10712 10712 10712 10712 10712 10712 10713 10714 10715 10716 10717 10719 10720
10743 10745 10747 10746 10746 10744 10744 10745 10745 10743 10741 10741 10742 10740 10737 10735 10735 10736 10737 10739 10742 10743 10743 10742 10741 10738 10736 10736 10735 10732 10729 10731 10733 10732 10731 10731 10731 10731 10730 10728 10724 10723 10723 10723 10723 10721 10721 10721 10719 10716 10714 10713 10711 10711 10712 10712 10713 10713 10714 10714 10715 10716 10718 10719 10719 10720 10715 10709 10708 10710 10709 10709 10708 10708 10708 10707 10708 10708 10708 10710 10711 10713 10714 10716 10717
10737 10739 10740 10740 10739 10737 10737 10738 10738 10736 10734 10734 10736 10734 10732 10731 10732 10732 10733 10735 10738 10739 10737 10736 10735 10732 10730 10730 10729 10729 10727 10728 10730 10731 10731 10730 10729 10728 10726 10725 10723 10722 10723 10723 10723 10722 10721 10720 10718 10716 10715 10713 10710 10708 10709 10710 10709 10710 10710 10711 10711 10712 10714 10716 10716 10717 10714 10708 10706 10707 10706 10706 10705 10704 10704 10703 10703 10703 10704 10706 10708 10709 10711 10712 10713
10731 10733 10734 10733 10732 10731 10731 10732 10732 10731 10729 10728 10728 10727 10725 10726 10728 10728 10726 10728 10731 10730 10729 10729 10729 10725 10725 10726 10724 10725 10724 10723 10725 10726 10727 10726 10726 10723 10722 10721 10719 10719 10720 10720 10721 10720 10719 10718 10716 10714 10713 10711 10708 10706 10706 10706 10706 10705 10706 10707 10708 10709 10711 10712 10712 10713 10712 10708 10705 10704 10702 10702 10701 10700 10700 10699 10699 10699 10700 10702 10703 10705 10707 10708 10709
10725 10727 10728 10726 10726 10725 10725 10726 10726 10726 10725 10723 10723 10720 10719 10722 10725 10725 10722 10721 10722 10722 10722 10723 10723 10721 10720 10720 10719 10719 10718 10717 10718 10720 10722 10721 10720 10718 10717 10716 10715 10715 10715 10716 10717 10716 10716 10714 10711 10709 10707 10706 10705 10704 10703 10703 10703 10703 10703 10704 10705 10706 10707 10708 10709 10708 10709 10707 10704 10702 10700 10698 10698 10697 10696 10696 10696 10697 10697 10698 10700 10701 10702 10704 10705
10720 10721 10722 10722 10721 10721 10721 10723 10722 10721 10719 10717 10718 10716 10714 10716 10719 10720 10718 10716 10715 10715 10716 10716 10716 10716 10715 10714 10713 10711 10711 10711 10712 10713 10714 10714 10713 10712 10711 10711 10711 10710 10710 10711 10711 10710 10711 10710 10706 10704 10703 10703 10703 10702 10700 10699 10700 10699 10700 10701 10701 10702 10703 10704 10704 10704 10704 10704 10702 10700 10698 10696 10695 10694 10693 10693 10693 10694 10694 10695 10696 10697 10699 10700 10701
10714 10716 10718 10719 10719 10717 10717 10720 10718 10714 10712 10709 10710 10710 10707 10707 10709 10710 10709 10708 10708 10708 10708 10708 10709 10709 10708 10708 10707 10705 10705 10705 10705 10706 10706 10707 10706 10705 10705 10705 10705 10705 10704 10705 10706 10706 10706 10705 10703 10702 10701 10701 10700 10699 10697 10696 10697 10696 10696 10697 10697 10698 10699 10700 10700 10699 10700 10701 10700 10699 10696 10693 10693 10693 10691 10690 10690 10690 10691 10691 10692 10693 10694 10696 10697
10709 10712 10716 10718 10720 10717 10714 10716 10715 10708 10706 10703 10701 10701 10698 10697 10698 10699 10699 10699 10700 10700 10701 10701 10701 10701 10701 10701 10701 10700 10700 10700 10699 10699 10699 10700 10700 10699 10698 10699 10699 10699 10699 10700 10701 10701 10702 10701 10700 10699 10698 10698 10697 10696 10695 10695 10694 10694 10692 10693 10694 10695 10695 10695 10695 10695 10696 10697 10698 10699 10694 10688 10689 10691 10688 10685 10685 10686 10687 10687 10688 10689 10690 10692 10693
10706 10709 10714 10715 10715 10715 10712 10714 10712 10705 10703 10702 10698 10696 10692 10689 10689 10688 10690 10691 10692 10694 10695 10695 10695 10694 10694 10695 10695 10694 10694 10694 10693 10693 10693 10693 10693 10693 10693 10693 10694 10695 10695 10695 10696 10697 10696 10696 10695 10695 10695 10695 10694 10693 10693 10692 10691 10691 10690 10690 10692 10692 10692 10692 10691 10692 10691 10692 10694 10696 10692 10684 10683 10684 10682 10681 10681 10683 10683 10683 10685 10686 10687 10688 10689
10704 10708 10710 10705 10702 10704 10705 10706 10705 10700 10699 10698 10694 10691 10686 10682 10681 10682 10683 10684 10686 10687 10688 10688 10688 10688 10688 10689 10689 10688 10688 10688 10687 10687 10688 10688 10688 10689 10689 10689 10689 10691 10691 10690 10691 10691 10691 10691 10691 10691 10691 10691 10690 10689 10689 10688 10687 10688 10687 10687 10688 10689 10689 10689 10689 10688 10686 10686 10688 10688 10686 10683 10681 10679 10676 10677 10680 10680 10680 10681 10682 10683 10684 10685 10685
10704 10704 10699 10693 10691 10694 10695 10696 10696 10694 10693 10690 10686 10683 10678 10674 10674 10676 10677 10678 10679 10680 10681 10681 10680 10680 10681 10682 10683 10683 10683 10683 10682 10682 10683 10683 10684 10685 10685 10685 10685 10686 10687 10686 10686 10686 10686 10686 10687 10687 10687 10687 10686 10686 10685 10684 10685 10687 10685 10684 10686 10686 10687 10688 10687 10684 10680 10680 10680 10679 10678 10679 10679 10677 10675 10676 10677 10678 10678 10679 10680 10680 10681 10681 10682
10703 10696 10684 10681 10685 10686 10685 10686 10686 10686 10686 10682 10678 10674 10670 10668 10669 10671 10672 10672 10673 10673 10673 10673 10673 10674 10674 10675 10676 10677 10678 10678 10678 10677 10678 10678 10679 10680 10680 10680 10681 10681 10682 10682 10681 10681 10681 10681 10682 10683 10683 10683 10683 10682 10681 10680 10680 10682 10682 10683 10685 10684 10684 10686 10683 10676 10673 10674 10673 10674 10675 10676 10676 10675 10674 10674 10675 10676 10676 10677 10678 10679 10679 10680 10681
10696 10684 10673 10676 10681 10678 10675 10675 10677 10678 10678 10676 10672 10667 10664 10664 10666 10667 10667 10667 10667 10667 10667 10667 10668 10669 10670 10671 10672 10672 10673 10673 10673 10673 10673 10673 10673 10674 10675 10675 10676 10676 10677 10677 10677 10677 10677 10677 10678 10678 10678 10679 10680 10679 10678 10677 10677 10677 10678 10680 10682 10680 10679 10681 10676 10669 10668 10669 10670 10672 10673 10673 10673 10672 10673 10672 10672 10673 10674 10675 10677 10678 10679 10680 10680
10685 10672 10668 10674 10675 10670 10667 10668 10671 10673 10672 10670 10666 10662 10662 10663 10662 10662 10662 10662 10662 10662 10663 10663 10664 10666 10667 10667 10668 10668 10668 10668 10669 10669 10668 10668 10668 10669 10670 10670 10671 10671 10672 10672 10672 10673 10673 10673 10673 10674 10675 10676 10677 10677 10675 10676 10675 10674 10674 10676 10677 10676 10675 10675 10670 10665 10666 10667 10668 10669 10671 10672 10672 10672 10672 10671 10671 10671 10672 10673 10675 10677 10679 10680 10679
10674 10664 10664 10669 10667 10664 10663 10665 10668 10668 10667 10665 10660 10658 10659 10659 10659 10658 10657 10658 10658 10659 10659 10659 10660 10662 10663 10663 10663 10663 10664 10664 10664 10664 10664 10664 10664 10664 10665 10665 10666 10666 10667 10667 10668 10669 10669 10669 10669 10669 10671 10671 10673 10673 10672 10673 10672 10670 10669 10671 10673 10671 10670 10670 10667 10663 10665 10666 10666 10667 10669 10671 10671 10672 10673 10671 10671 10671 10672 10672 10673 10676 10679 10679 10676
10665 10657 10659 10663 10661 10661 10663 10663 10664 10664 10664 10661 10657 10654 10655 10655 10654 10654 10654 10655 10656 10656 10655 10656 10657 10658 10659 10659 10659 10659 10659 10660 10660 10660 10660 10660 10660 10660 10661 10661 10662 10662 10662 10663 10663 10664 10665 10665 10665 10665 10666 10667 10668 10668 10668 10668 10667 10665 10664 10665 10667 10667 10665 10665 10663 10661 10662 10663 10664 10665 10667 10669 10669 10670 10671 10670 10669 10670 10671 10671 10671 10674 10677 10676 10671
10657 10650 10652 10657 10657 10658 10660 10659 10659 10659 10659 10658 10655 10651 10650 10651 10651 10651 10651 10652 10653 10652 10652 10652 10653 10654 10654 10655 10655 10655 10655 10656 10656 10656 10657 10657 10657 10658 10658 10658 10658 10658 10658 10659 10659 10659 10660 10660 10660 10661 10662 10662 10663 10664 10663 10663 10662 10660 10660 10661 10662 10662 10661 10662 10660 10658 10659 10660 10660 10661 10663 10664 10665 10664 10665 10665 10665 10666 10667 10667 10667 10669 10668 10667 10664
10650 10641 10645 10652 10653 10653 10653 10652 10653 10654 10655 10656 10652 10648 10647 10647 10647 10647 10648 10648 10648 10648 10648 10648 10648 10649 10650 10651 10651 10652 10652 10652 10653 10653 10654 10654 10655 10655 10655 10655 10655 10655 10655 10655 10656 10656 10656 10656 10656 10656 10657 10658 10658 10659 10658 10658 10657 10656 10656 10657 10657 10657 10657 10658 10657 10655 10655 10656 10656 10656 10657 10659 10659 10657 10658 10660 10660 10660 10661 10662 10662 10662 10659 10658 10657
10642 10634 10638 10647 10649 10648 10647 10646 10648 10650 10651 10651 10647 10644 10644 10642 10642 10642 10642 10642 10643 10644 10644 10644 10644 10645 10645 10646 10647 10648 10648 10649 10650 10650 10651 10651 10652 10652 10652 10652 10652 10652 10652 10652 10652 10652 10652 10652 10651 10652 10652 10653 10653 10654 10654 10653 10653 10653 10653 10653 10653 10652 10652 10654 10654 10652 10652 10652 10651 10652 10653 10654 10653 10652 10653 10654 10655 10655 10656 10657 10658 10658 10655 10653 10652
10636 10631 10635 10643 10645 10642 10641 10642 10644 10644 10644 10642 10638 10637 10637 10636 10635 10636 10636 10636 10637 10638 10639 10640 10640 10640 10641 10641 10642 10643 10644 10645 10646 10647 10647 10647 10648 10648 10648 10648 10648 10648 10648 10648 10648 10648 10648 10647 10647 10647 10648 10648 10648 10649 10649 10649 10649 10649 10649 10648 10649 10648 10648 10650 10651 10649 10648 10648 10648 10648 10649 10649 10648 10648 10648 10650 10651 10652 10652 10652 10653 10653 10652 10650 10650
10637 10633 10633 10637 10639 10636 10631 10632 10635 10635 10632 10630 10629 10630 10630 10630 10629 10630 10630 10630 10631 10632 10633 10634 10635 10635 10636 10637 10637 10638 10639 10640 10641 10642 10642 10643 10643 10644 10644 10644 10644 10644 10644 10645 10644 10644 10644 10643 10643 10643 10643 10643 10644 10644 10644 10644 10644 10644 10644 10644 10645 10644 10645 10646 10646 10645 10644 10644 10645 10645 10644 10644 10644 10643 10643 10645 10647 10648 10648 10648 10649 10650 10649 10648 10647
10635 10630 10626 10625 10626 10622 10616 10619 10623 10625 10625 10624 10624 10625 10625 10624 10624 10625 10625 10625 10626 10626 10627 10629 10630 10631 10631 10632 10633 10633 10634 10635 10636 10637 10637 10638 10639 10639 10640 10640 10640 10640 10640 10640 10640 10639 10639 10639 10639 10639 10639 10639 10639 10639 10639 10639 10640 10640 10640 10640 10640 10641 10641 10641 10641 10640 10638 10638 10639 10639 10639 10639 10639 10638 10639 10640 10642 10643 10644 10644 10645 10645 10645 10644 10644
10626 10621 10616 10613 10613 10611 10611 10615 10619 10622 10624 10623 10622 10622 10621 10620 10620 10620 10620 10620 10621 10621 10622 10624 10625 10626 10627 10627 10628 10629 10630 10631 10631 10632 10632 10633 10634 10634 10635 10635 10635 10636 10636 10636 10635 10635 10634 10634 10635 10635 10635 10635 10635 10635 10635 10635 10636 10636 10636 10635 10636 10638 10637 10636 10636 10634 10631 10632 10635 10635 10635 10634 10634 10634 10634 10635 10637 10638 10639 10640 10640 10640 10640 10640 10640